Location: Bratislava
(48.1500°N, 17.1170°E)
Time: 17:31:53
(UTC+01:00)

Tiangong 2 - Pass Details

Date: 25 January 2019
Orbit: 381 x 390 km, 42.8° (Epoch: 19 February)

Event Time Altitude Azimuth Distance (km) Brightness Sun altitude
Exits shadow 05:48:38 20° 213° (SSW) 973 2.9 -16.5°
Maximum altitude 05:49:11 21° 197° (SSW) 943 2.9 -16.4°
Drops below altitude 10° 05:51:38 10° 146° (SSE) 1,409 4.5 -16.0°
Sets 05:54:02 0° 130° (SE) 2,263 6.1 -15.6°
